GFSNGP_con_lsi_108.txt.gz
Lid_Strength_Index
17 15 15 15 14 14 15 16 18 17 16 13 13 12 11 12 12 12 12 11 12 12 12 12 12 12 12 12 12 12 12 12 13 12 12 12 12 12 12 12 12 12 12 12
18 15 15 15 13 13 14 15 15 15 15 12 12 11 11 11 11 11 12 12 12 12 12 13 13 13 12 12 12 11 12 12 12 12 12 12 12 12 12 13 13 12 12 12
20 17 16 17 15 14 15 14 15 16 14 12 12 11 12 12 11 11 11 11 11 12 12 12 12 12 12 13 12 12 12 13 12 12 12 12 12 12 13 13 13 13 13 13
20 18 20 15 13 13 14 12 12 13 12 12 12 12 12 11 11 11 11 11 11 12 12 12 12 12 12 12 13 13 13 12 12 12 12 12 13 13 13 13 13 13 13 13
21 20 17 15 14 14 15 15 11 12 12 12 12 12 12 11 10 10 11 11 12 12 12 13 12 13 13 13 13 13 13 13 12 12 13 13 13 14 14 14 14 14 13 13
19 21 21 16 14 14 14 17 12 11 12 12 12 15 14 12 11 11 11 11 12 13 13 13 13 13 13 13 13 13 12 12 13 13 13 13 14 14 14 14 14 13 14 15
20 21 18 14 13 14 19 16 12 11 11 12 12 12 12 12 12 12 12 12 13 13 13 13 13 12 13 13 13 12 12 12 13 14 14 14 14 15 15 15 16 16 15 14
19 20 20 13 14 17 15 14 12 12 12 11 11 11 11 11 12 12 12 12 12 13 13 13 12 12 12 12 12 13 13 14 14 15 14 14 16 16 16 16 16 16 14 12
16 16 13 12 13 13 13 13 13 12 11 11 11 11 11 12 12 12 12 12 12 13 13 13 12 12 12 13 13 14 14 15 15 15 15 16 16 16 16 16 16 14 12 12
15 13 13 12 11 12 12 12 12 11 11 11 11 11 12 12 12 12 12 13 12 12 12 13 12 12 12 13 13 14 15 15 15 15 16 16 16 16 16 16 15 12 11 11
15 14 13 12 12 11 11 11 12 11 11 11 11 12 12 12 12 12 12 12 12 12 12 12 13 13 13 13 14 15 15 15 16 16 17 17 17 16 15 14 12 10 11 11
16 13 14 14 12 11 11 12 11 11 12 11 11 11 12 12 12 12 13 12 12 12 12 13 13 13 13 13 14 14 15 16 15 17 17 17 16 16 12 10 8 8 8 10
14 14 14 13 12 12 12 11 11 11 11 11 11 11 11 12 12 11 13 12 12 12 12 12 13 13 13 14 14 14 15 16 16 16 17 17 16 16 16 13 10 9 9 9
13 15 14 13 13 12 11 11 10 11 11 11 11 11 11 12 11 12 12 12 12 12 12 12 13 14 13 14 14 15 16 12 17 17 17 16 16 16 16 15 14 13 11 10
14 13 12 14 13 13 12 11 12 12 12 12 11 11 11 12 11 12 12 11 11 12 12 12 13 14 13 14 15 16 16 16 17 17 16 15 16 16 16 14 14 13 13 12
13 12 13 14 13 13 13 12 12 12 12 12 12 12 12 12 12 12 12 11 12 13 13 13 13 14 14 15 16 16 16 13 14 16 16 16 16 16 16 15 14 14 13 13
14 15 15 15 14 13 13 12 11 12 12 12 12 12 12 13 13 12 12 11 12 12 12 13 14 14 15 15 16 16 16 16 13 16 16 16 16 16 16 15 14 13 12 12
12 11 13 13 13 13 13 12 12 12 12 11 12 12 12 12 12 13 13 13 13 13 13 13 14 15 15 15 16 16 17 16 16 16 16 15 16 16 15 14 14 13 13 12
12 12 12 13 12 12 13 13 13 12 12 11 12 12 12 12 12 13 13 13 13 14 14 13 11 14 16 15 15 16 16 16 16 16 15 14 16 16 15 14 12 12 12 13
13 13 12 13 12 12 12 12 12 11 11 11 11 12 13 13 12 13 12 13 13 13 13 12 14 16 15 14 13 16 16 16 16 16 16 16 17 16 13 12 12 12 12 12
13 13 13 13 13 12 11 11 11 11 11 11 11 11 12 12 12 13 14 14 14 11 13 11 16 16 15 14 15 16 16 16 16 17 17 18 17 14 14 13 12 11 12 12
13 13 13 13 12 12 11 11 11 11 11 11 11 11 12 12 13 13 13 12 13 9 11 15 16 13 15 12 16 16 16 16 16 16 17 17 17 14 14 13 12 11 12 12
13 13 12 12 12 11 11 11 11 10 11 10 11 11 11 11 11 13 14 13 11 11 14 15 13 11 11 16 16 16 16 16 16 16 16 17 15 14 14 13 12 11 12 12
14 13 13 12 11 11 12 12 11 11 10 10 10 10 11 12 13 12 11 10 9 11 15 14 11 10 11 16 16 17 17 17 16 16 15 14 14 14 14 13 12 11 11 12
14 13 13 13 13 13 12 12 11 10 10 10 11 11 11 10 11 12 11 11 9 13 15 10 9 9 16 16 17 17 17 17 16 15 16 16 14 14 14 13 12 11 11 11
14 13 13 13 13 12 11 10 11 11 10 12 12 12 12 11 10 11 11 11 12 13 14 12 13 14 16 17 16 16 17 16 16 16 15 16 14 13 13 13 12 11 11 10
13 11 13 13 13 12 12 11 12 12 11 11 13 12 11 11 11 11 11 12 14 14 14 13 13 14 16 16 17 17 17 16 15 16 15 15 13 13 13 12 12 11 11 10

GFSNGP_con_lsi_111.txt.gz
Lid_Strength_Index
16 16 15 15 15 14 14 14 14 14 14 11 10 10 9 9 10 11 11 11 11 11 11 10 11 11 11 11 11 11 11 11 10 10 10 10 9 9 9 9 9 9 9 9
18 15 15 16 14 13 13 13 14 13 13 10 10 9 9 9 9 10 10 10 10 10 10 11 11 11 10 10 10 9 10 10 10 10 10 10 10 9 9 9 9 9 9 9
19 17 16 16 14 14 14 13 13 14 11 10 10 10 9 9 9 9 10 10 10 10 10 10 10 10 10 10 9 9 10 10 10 9 9 9 9 9 9 10 9 9 9 9
18 17 19 15 12 13 13 13 12 11 11 10 9 9 9 9 9 9 9 10 10 10 10 10 10 10 10 10 10 10 10 10 10 10 10 10 10 10 10 10 10 9 10 10
18 18 16 15 14 14 14 14 11 11 10 10 10 9 9 9 9 9 9 9 10 9 10 10 10 10 10 10 10 10 10 10 10 9 10 10 10 10 10 10 10 10 10 10
18 19 19 15 13 12 12 15 12 11 11 10 10 11 10 9 9 9 9 9 10 10 11 10 11 10 10 10 10 10 10 10 10 10 10 10 11 11 11 11 11 11 12 12
19 18 16 13 12 13 16 14 12 11 11 11 10 9 9 9 9 9 9 10 10 10 10 10 10 10 10 10 10 10 10 10 10 11 11 11 12 11 12 12 12 13 13 12
19 19 19 12 13 15 12 12 11 11 11 11 10 10 10 9 10 10 10 10 10 11 11 10 10 10 10 10 10 10 11 11 12 12 12 13 13 13 13 13 13 13 12 12
16 15 12 12 12 11 11 11 11 11 11 11 11 10 10 10 10 10 10 10 10 11 11 10 10 9 10 11 10 11 11 12 12 13 13 13 13 13 13 13 13 13 12 12
14 12 12 11 11 11 10 10 10 10 10 10 11 11 11 11 11 11 11 11 11 11 11 11 10 9 10 11 11 11 12 12 13 12 14 14 13 13 13 13 13 12 12 11
14 13 12 12 11 10 10 10 10 10 10 10 11 11 11 12 12 11 11 11 10 10 10 11 10 10 11 11 11 12 12 13 14 14 14 14 14 13 12 12 12 12 11 10
14 12 12 13 11 10 11 10 10 10 10 10 11 11 11 12 11 12 12 12 11 11 10 11 11 11 11 11 11 12 13 13 13 14 14 14 14 14 13 12 12 11 10 9
11 12 12 13 12 10 11 11 11 10 10 10 11 11 11 12 12 11 12 11 11 11 11 11 11 11 11 11 11 12 13 14 13 14 14 14 14 15 15 14 13 12 10 8
11 13 13 13 13 12 11 10 9 10 10 10 10 11 11 12 11 12 12 11 11 11 11 11 11 11 11 12 12 13 12 13 14 14 13 14 14 15 15 15 15 14 11 9
13 13 11 12 13 13 12 12 12 11 11 11 10 11 11 12 12 12 12 11 11 11 11 11 12 12 11 12 13 13 13 13 14 13 13 14 14 14 14 15 14 14 12 11
13 12 13 13 12 13 12 12 12 12 11 11 11 11 11 11 12 12 12 11 12 12 12 11 11 11 12 12 14 14 12 12 13 13 14 14 14 14 15 15 14 14 13 12
14 14 14 15 13 13 13 11 12 11 11 11 11 12 12 12 13 13 12 11 11 11 11 11 12 12 12 13 14 13 13 12 13 14 14 14 14 14 14 14 14 14 12 11
11 11 12 12 12 12 13 12 12 11 11 11 11 12 13 13 12 12 12 12 12 12 11 12 12 13 13 14 14 13 14 13 14 14 14 14 14 14 14 14 14 13 12 11
11 12 11 12 12 12 12 13 12 11 11 11 12 13 12 12 12 12 12 12 12 13 13 12 11 13 14 13 14 13 13 14 14 14 14 14 14 14 14 14 14 13 12 11
13 12 12 12 12 12 12 12 12 12 12 12 12 12 12 12 12 12 12 12 11 11 12 11 12 14 14 12 12 13 14 14 14 14 14 14 14 14 14 14 14 13 12 11
13 13 13 13 13 12 12 11 12 12 12 11 11 11 12 12 11 11 13 13 13 11 12 10 13 13 13 12 13 13 14 14 14 14 14 15 15 14 14 14 14 13 12 11
13 13 13 13 13 12 12 12 11 11 11 11 11 11 11 12 12 11 11 11 12 10 10 13 13 12 12 12 14 14 14 14 14 14 14 14 15 14 14 14 14 13 12 11
13 13 13 13 13 12 12 11 11 11 11 11 11 11 11 11 11 11 12 12 11 10 12 13 11 10 10 14 13 14 14 15 14 14 14 14 14 14 14 14 14 13 13 11
13 13 13 13 12 12 12 12 11 11 11 11 10 10 10 11 11 10 10 9 9 10 12 12 10 10 11 14 14 14 15 15 15 14 14 14 14 14 14 13 13 13 12 11
13 14 13 12 12 12 12 12 11 11 11 11 11 10 10 9 9 10 9 9 8 11 12 9 9 10 14 14 14 15 15 15 14 14 14 14 14 14 13 13 13 13 13 12
14 14 13 12 12 12 12 11 12 11 11 11 10 10 10 10 9 10 9 9 11 11 12 11 11 13 14 14 15 15 15 15 14 15 14 14 14 14 13 13 13 13 12 12
14 13 13 13 13 12 11 11 12 11 11 10 11 10 10 10 10 10 9 11 11 13 12 12 11 13 14 14 15 15 15 15 14 14 15 14 14 14 13 13 13 12 12 12

GFSNGP_con_lsi_114.txt.gz
Lid_Strength_Index
13 14 14 14 14 13 13 10 12 12 12 10 8 7 7 7 8 7 8 9 8 8 8 8 9 9 8 9 9 9 9 9 8 8 7 7 8 7 7 7 7 7 7 7
14 13 14 14 12 12 11 11 11 10 11 8 7 6 7 7 7 7 8 7 7 7 7 7 7 7 7 7 7 7 7 7 7 7 7 7 7 7 7 7 7 7 7 7
15 14 13 14 12 12 11 11 11 12 9 7 7 7 7 7 6 7 7 7 7 7 7 7 7 7 7 7 7 7 7 7 7 7 7 7 7 7 7 8 7 8 8 8
15 13 16 12 11 11 12 11 10 10 9 7 6 6 6 5 6 6 7 7 7 7 7 7 7 7 7 7 7 7 8 8 7 7 7 7 7 7 8 8 8 8 8 8
15 15 12 12 11 12 12 11 10 10 9 8 7 6 6 5 5 5 6 6 6 6 7 7 7 7 7 7 8 8 8 8 7 7 7 7 8 8 8 8 8 8 8 9
14 16 16 12 11 10 11 13 10 9 9 9 8 9 7 5 5 5 5 6 6 6 7 7 7 7 7 7 7 8 7 8 7 7 8 8 8 8 8 8 9 9 10 10
14 15 13 10 10 10 14 12 10 9 8 9 9 7 6 5 5 5 5 6 6 6 6 6 6 6 7 7 8 7 7 7 8 8 8 8 8 9 9 10 10 10 10 10
14 15 16 9 10 12 9 9 9 8 8 8 7 8 8 7 6 6 6 6 6 7 7 7 6 6 7 7 7 7 7 8 8 8 9 9 9 10 10 10 11 11 11 11
11 11 9 9 8 8 8 8 8 7 7 7 8 8 8 8 7 7 7 7 7 7 7 7 6 6 7 7 7 8 8 9 9 9 10 10 10 11 11 11 11 11 11 11
11 8 9 9 8 8 8 7 7 7 7 7 8 7 8 8 8 8 8 8 7 7 8 8 7 6 7 7 7 8 9 9 9 10 11 11 11 11 11 11 11 12 12 12
10 8 9 9 8 7 7 7 7 7 7 7 7 7 8 8 9 9 9 8 8 8 8 8 7 7 7 7 7 8 9 10 10 11 11 11 11 11 11 11 12 12 12 11
10 7 8 7 8 7 8 8 7 7 7 7 7 7 8 8 8 9 9 9 9 8 8 8 8 8 8 7 7 9 10 10 10 11 11 11 11 11 12 12 12 12 11 11
8 6 7 7 8 8 9 8 8 8 7 7 7 7 8 8 9 9 10 10 9 9 8 8 8 8 8 8 8 9 10 11 11 11 11 11 11 12 13 12 12 12 12 11
7 7 8 8 10 9 9 8 8 7 7 7 7 7 8 8 9 9 10 10 9 9 9 9 9 9 8 8 8 9 10 11 11 11 11 11 12 12 12 13 13 12 12 11
8 7 8 7 9 9 9 9 9 9 8 8 7 8 8 9 9 9 9 9 9 9 9 9 9 9 9 9 9 10 10 11 11 11 11 12 12 11 12 12 13 12 12 12
9 9 9 10 10 9 9 10 10 9 8 8 8 8 8 8 8 9 9 10 10 11 10 10 10 9 9 10 10 11 11 11 11 11 12 12 11 12 12 12 13 13 13 13
10 11 11 11 10 10 9 9 9 9 8 8 8 8 8 8 9 10 10 10 9 10 9 9 10 9 10 10 10 10 10 11 11 12 12 12 11 12 12 12 13 13 13 12
9 9 9 9 10 9 9 9 9 9 9 8 8 8 9 9 10 10 10 10 10 10 10 9 9 10 10 11 11 11 11 11 11 12 12 12 11 12 12 13 13 13 13 12
9 9 9 9 9 9 9 8 9 9 9 8 8 9 9 9 9 10 10 10 10 11 10 9 10 10 11 11 11 11 11 11 12 12 12 13 12 12 12 12 13 13 13 13
9 9 9 9 9 9 9 8 8 9 9 8 8 9 9 9 10 10 10 10 10 9 9 10 11 11 11 11 11 11 12 11 12 12 12 12 12 12 12 13 14 13 13 13
10 10 10 10 9 9 9 8 9 9 9 9 9 9 9 9 10 10 10 10 9 9 9 10 11 12 11 10 11 11 12 11 12 12 12 12 12 12 13 14 14 13 13 13
10 10 10 10 10 10 9 8 8 9 9 9 9 8 8 9 9 9 8 8 9 9 9 10 11 11 10 10 11 12 11 11 12 12 12 12 12 13 14 14 14 13 12 12
10 10 10 10 10 9 9 9 9 8 9 8 8 9 8 8 8 8 9 8 8 9 9 10 10 9 9 11 11 12 11 12 12 12 12 12 12 13 14 14 14 13 13 12
10 10 10 10 9 9 10 9 8 8 8 8 8 8 8 8 8 6 7 8 8 8 9 10 9 9 10 11 12 11 11 12 12 12 12 13 12 13 14 14 14 13 13 13
10 10 10 10 10 9 9 8 8 9 9 9 8 8 7 6 7 7 7 7 8 8 10 9 9 9 11 12 11 11 12 12 12 12 13 13 13 13 14 14 13 13 13 12
10 10 9 9 8 8 8 8 9 8 8 9 8 8 7 7 7 7 6 7 8 8 8 8 9 10 12 11 11 12 13 12 12 13 13 13 13 13 13 13 13 13 12 12
10 10 10 11 9 8 8 8 8 9 8 8 8 8 8 7 7 7 7 8 8 8 8 8 9 11 12 11 12 13 13 13 13 13 13 13 13 13 13 13 13 12 12 12

GFSNGP_con_lsi_117.txt.gz
Lid_Strength_Index
12 12 12 13 13 13 13 11 12 11 11 9 7 7 6 6 5 5 7 8 7 7 7 8 8 9 9 9 8 8 9 9 8 8 7 7 7 7 7 7 7 6 7 7
13 12 12 13 12 12 11 11 10 10 10 7 6 5 6 6 5 6 6 7 7 6 6 7 7 7 7 7 7 7 7 7 7 7 7 7 7 7 7 7 7 7 8 8
14 12 12 13 11 11 11 10 10 12 9 6 7 6 6 6 5 5 6 6 6 6 6 6 6 6 7 6 6 7 7 7 7 7 7 8 8 8 7 7 7 8 8 7
14 12 15 11 9 9 10 10 9 10 9 7 6 5 5 4 5 5 5 5 5 6 6 6 6 6 6 6 7 7 7 7 7 7 8 8 7 7 7 7 8 8 8 8
15 13 11 11 10 11 11 11 9 9 9 8 6 6 6 4 4 4 4 5 5 5 6 6 6 6 6 6 6 7 7 7 7 7 8 7 7 7 8 8 8 8 8 9
13 15 15 11 10 9 9 12 8 8 9 8 8 10 7 5 4 4 4 4 5 5 5 5 6 5 6 6 7 7 7 7 7 7 7 7 7 8 8 8 9 9 9 9
14 14 11 8 10 9 14 11 9 8 8 8 9 8 6 5 5 4 4 5 5 5 6 5 5 5 6 6 7 7 7 7 7 7 8 7 8 8 9 9 9 10 10 10
13 14 15 8 10 12 8 8 8 7 7 7 7 7 7 6 6 5 5 5 5 6 6 6 5 6 6 6 6 6 7 7 7 8 8 8 9 9 10 10 10 10 11 11
11 10 7 7 7 7 7 7 7 7 6 6 7 7 7 7 6 6 6 6 6 6 6 6 6 6 6 6 6 7 7 8 8 8 9 9 10 10 10 10 11 11 11 11
11 8 8 7 7 7 7 7 6 6 6 6 7 6 7 7 7 7 6 7 7 6 7 7 6 6 6 6 7 7 8 8 8 9 10 10 10 10 10 11 11 12 12 12
10 8 8 7 7 6 6 6 6 6 6 6 6 6 6 7 7 7 7 7 7 7 7 7 7 7 7 7 7 8 8 8 9 10 11 10 10 11 11 11 11 12 12 12
11 8 8 7 5 5 6 6 6 6 6 6 6 6 6 6 6 6 7 7 8 8 8 8 8 8 8 8 8 8 9 9 10 10 10 10 11 11 11 12 12 12 11 11
8 7 7 6 5 6 7 6 6 7 6 7 6 6 6 6 6 6 7 7 8 8 8 8 8 9 8 8 8 8 9 9 10 11 11 11 11 12 12 11 11 11 12 11
7 7 8 7 7 7 7 7 7 7 7 7 7 6 6 6 7 7 7 7 7 8 8 8 9 9 8 8 9 8 9 9 10 11 10 11 12 12 12 12 12 12 11 11
8 7 7 7 6 6 7 7 8 8 8 7 7 6 7 7 7 7 7 7 7 8 9 9 9 9 9 9 9 9 10 10 10 10 10 11 12 12 12 12 12 12 12 12
8 8 8 8 7 7 7 8 9 9 8 8 7 7 7 7 7 7 7 8 8 9 9 9 10 9 9 9 10 10 10 10 10 11 11 12 12 12 12 12 12 12 13 13
10 10 9 9 9 9 8 8 8 9 8 8 8 7 7 7 7 7 8 8 8 9 9 9 10 10 9 10 10 10 10 11 10 11 11 11 11 12 12 12 12 12 12 12
8 8 8 9 9 9 9 8 8 8 8 7 7 7 7 7 7 8 8 8 8 9 9 9 9 10 10 10 11 10 10 10 11 11 11 11 11 11 12 12 12 12 12 12
8 9 8 8 8 8 8 8 8 7 8 7 7 7 7 7 7 7 8 9 9 10 10 9 9 10 11 11 11 10 10 10 11 11 11 12 12 12 12 12 12 12 12 13
9 8 8 8 8 8 8 8 8 8 8 7 7 7 7 7 7 8 8 9 9 9 9 9 10 11 11 11 11 11 10 11 11 11 11 11 12 12 12 13 13 13 13 13
8 8 8 8 8 8 8 8 8 8 8 8 7 7 7 7 7 8 9 10 9 8 9 10 10 11 11 11 11 11 10 11 11 11 11 12 12 12 13 13 13 13 13 13
9 9 9 9 9 9 8 8 8 8 8 8 7 7 8 8 8 8 8 8 8 8 9 10 11 11 11 10 11 11 10 11 11 11 11 12 12 13 13 14 14 13 13 13
9 9 9 9 9 8 8 8 8 7 8 8 8 7 7 7 7 8 9 7 8 8 9 10 10 10 10 11 10 10 11 11 11 11 11 12 12 13 13 14 14 14 14 13
9 9 9 8 8 8 9 8 8 8 8 8 7 6 7 7 7 6 6 7 7 8 9 9 9 9 10 11 11 11 11 11 11 11 11 12 12 13 13 14 14 14 13 13
9 9 9 9 9 9 8 8 8 8 8 7 7 7 7 6 6 6 6 7 7 7 8 8 8 9 11 11 11 11 11 11 10 11 12 13 13 13 13 13 13 13 13 13
9 9 9 8 8 8 8 8 8 7 8 8 8 7 6 6 6 6 6 6 7 7 8 8 8 10 11 11 11 11 11 10 12 12 12 13 13 13 13 13 13 13 13 13
9 9 9 9 8 8 8 7 8 8 7 8 8 7 6 6 5 6 6 7 7 7 8 8 8 10 11 11 11 11 11 11 12 12 12 12 13 12 12 13 13 13 13 12

GFSNGP_con_lsi_120.txt.gz
Lid_Strength_Index
12 12 13 13 13 13 15 14 16 13 12 11 9 8 8 7 6 8 8 8 8 9 10 9 9 10 10 10 10 10 10 10 11 10 10 9 9 9 9 10 10 9 9 9
14 12 12 14 13 12 13 13 13 12 12 9 8 7 7 7 6 7 8 8 8 8 8 9 10 10 9 9 9 9 9 9 9 9 9 9 10 10 10 10 10 10 10 10
16 13 13 15 13 12 12 11 12 14 12 9 9 7 7 7 6 6 7 7 7 7 8 8 9 9 9 9 9 9 9 9 9 9 10 10 10 10 10 11 10 10 10 10
16 14 18 13 11 11 11 11 10 11 10 9 9 8 7 5 6 6 6 7 7 8 8 8 8 9 9 9 9 9 10 10 9 10 10 10 10 11 11 10 11 11 11 11
17 16 13 12 11 12 13 12 10 11 10 9 8 9 9 6 5 6 6 6 7 7 8 8 8 8 8 9 9 9 9 10 10 10 10 10 10 10 10 11 11 12 12 12
15 18 18 13 11 10 10 15 10 9 10 10 9 13 11 8 6 6 6 6 7 7 7 8 8 8 8 9 9 10 9 10 9 9 10 10 10 11 11 11 12 11 12 13
16 16 13 10 11 10 16 13 11 10 10 9 10 10 8 7 8 7 7 7 7 8 8 8 8 8 9 9 10 9 9 9 9 9 10 10 11 11 12 12 12 13 13 13
15 16 17 10 12 13 10 10 9 10 9 9 9 9 8 7 8 8 8 8 8 9 9 9 8 8 9 9 9 9 9 9 10 10 10 10 12 12 13 13 14 14 14 13
12 12 9 9 10 9 8 9 9 9 9 8 8 9 8 8 8 8 8 9 9 9 9 9 9 9 9 9 9 9 10 10 11 10 11 12 13 14 13 13 14 14 14 14
11 9 9 9 9 9 8 8 8 8 7 8 9 8 9 8 8 8 8 8 9 9 10 11 10 9 9 9 9 10 11 11 11 12 12 13 12 13 13 14 14 14 14 14
10 10 9 8 9 9 8 8 8 7 7 7 8 8 8 9 8 8 7 8 8 9 10 10 10 10 9 9 10 11 11 11 11 12 13 13 13 13 13 14 13 14 14 14
11 9 9 9 8 8 8 8 7 8 8 7 7 8 8 8 8 8 8 8 8 9 10 10 10 10 10 10 10 11 12 12 12 13 13 13 14 14 11 11 11 11 11 12
9 8 8 8 7 7 8 8 7 7 7 7 7 8 8 8 8 7 8 8 8 9 9 9 10 10 10 10 11 11 12 12 13 12 13 14 14 15 15 13 11 11 11 11
8 9 11 9 10 8 8 7 6 7 8 8 8 8 8 8 8 8 8 8 9 9 9 9 10 10 10 10 11 12 12 10 14 14 14 14 15 15 15 15 15 14 11 11
8 8 10 10 9 9 8 8 9 9 9 9 9 9 8 9 9 9 9 8 9 9 10 10 10 10 10 10 11 12 13 13 13 13 13 13 14 14 14 15 15 15 14 13
10 10 10 10 10 10 9 9 10 10 9 9 9 9 8 8 9 9 9 9 9 10 10 10 10 10 10 11 12 13 13 11 12 13 14 14 14 14 15 15 15 15 15 15
11 11 11 11 11 10 10 9 9 9 9 10 9 9 9 9 9 10 9 9 9 9 10 10 10 10 11 11 12 13 14 13 11 13 14 14 14 14 14 15 15 15 15 14
8 9 9 10 10 10 10 10 10 10 10 9 9 9 9 9 9 9 9 9 10 10 10 10 10 10 11 12 12 13 14 14 14 14 13 13 14 14 14 15 15 15 15 14
9 9 9 10 10 10 10 10 10 10 10 10 10 10 9 8 9 9 9 10 10 11 11 10 9 11 12 12 12 13 14 14 14 14 13 12 14 14 14 15 15 15 15 15
9 9 9 10 10 10 10 10 10 10 10 10 10 10 10 10 8 9 9 10 10 10 10 10 11 12 12 11 11 13 13 14 14 14 13 14 14 14 14 14 15 15 15 15
10 10 10 10 10 10 10 10 10 10 10 9 10 10 10 9 9 9 10 11 11 9 10 10 12 12 13 12 13 14 14 15 14 14 14 14 15 14 15 15 15 15 15 14
10 10 10 10 11 11 10 10 9 9 10 10 9 9 9 10 10 10 10 10 10 8 10 11 12 12 12 11 13 14 14 14 14 13 14 14 14 14 15 15 16 15 15 14
11 11 11 11 11 10 10 10 10 10 10 10 9 9 10 10 9 10 11 9 9 9 10 11 11 10 10 13 13 14 14 14 14 14 13 14 14 14 14 16 15 14 14 14
11 11 11 10 10 10 11 11 10 9 9 9 9 9 9 10 10 9 8 7 8 8 11 11 10 9 10 13 14 14 14 14 14 14 13 12 13 13 15 15 15 14 14 14
11 11 11 11 11 11 11 10 10 10 10 11 10 9 9 8 9 9 8 8 7 9 10 8 8 8 12 13 14 14 14 14 13 14 14 13 12 14 14 15 15 14 14 14
11 11 11 11 11 10 10 10 11 11 11 11 10 9 9 8 7 7 7 7 8 8 10 9 9 11 12 13 14 14 14 13 13 13 12 12 13 13 14 14 15 14 13 13
11 10 10 10 10 10 10 10 10 11 10 10 10 9 9 8 7 7 7 8 8 9 9 9 11 11 12 13 14 14 13 14 12 12 13 13 13 14 14 14 14 14 13 13

GFSNGP_con_lsi_123.txt.gz
Lid_Strength_Index
14 14 14 15 15 14 16 16 18 16 15 12 9 9 8 9 9 9 9 9 9 10 10 10 11 11 11 11 11 11 11 11 11 11 11 11 11 10 11 10 11 10 10 10
16 13 14 15 14 14 15 15 16 15 15 12 9 8 8 8 8 9 9 9 10 10 11 11 11 11 10 10 10 10 10 10 10 10 10 10 11 11 11 11 11 11 11 10
18 14 15 17 15 14 14 14 14 16 13 11 10 8 8 8 7 8 9 9 9 9 10 10 10 10 10 10 10 10 10 10 10 10 11 11 11 11 12 12 12 12 12 10
18 16 19 14 13 12 13 12 12 12 11 10 10 9 8 8 8 8 8 8 9 9 9 9 9 10 10 10 10 10 11 11 11 11 11 11 11 12 12 12 12 12 12 11
18 18 14 13 12 13 14 13 11 12 11 10 9 10 10 7 7 8 8 8 9 9 9 9 9 9 10 10 10 10 11 11 10 10 10 11 12 12 12 12 13 13 13 13
17 19 18 13 11 11 12 16 11 11 11 11 11 13 12 8 7 8 8 9 9 10 10 10 10 10 10 10 11 11 11 11 10 10 10 11 11 12 12 13 12 12 13 13
18 18 14 11 11 11 17 15 11 10 11 10 11 10 10 8 8 7 8 9 9 10 10 11 10 10 10 11 11 11 10 10 10 10 10 11 12 13 13 14 14 14 14 14
17 18 18 11 11 13 12 12 11 11 11 9 10 9 9 8 8 8 8 9 9 10 11 11 11 11 11 12 11 10 10 11 11 11 10 11 13 14 14 14 15 15 15 14
14 14 10 10 11 10 10 11 11 11 10 9 9 9 9 9 9 8 9 9 9 10 11 11 11 11 12 12 11 11 12 12 12 12 13 13 14 14 14 14 15 15 15 15
12 11 10 10 10 9 9 10 10 9 9 9 9 9 9 9 9 9 9 9 9 10 10 11 11 11 11 12 11 12 13 13 14 14 14 14 13 13 14 15 15 14 14 15
12 11 10 9 9 9 9 9 9 9 9 9 9 9 9 9 9 9 9 9 9 9 10 10 11 11 10 11 11 12 13 14 14 14 15 14 13 14 14 15 14 15 15 15
12 10 9 9 7 8 8 9 9 9 9 8 8 9 9 9 9 9 9 9 9 9 10 10 10 10 10 10 11 12 13 14 14 15 15 14 14 15 10 11 10 10 10 12
10 9 8 8 7 7 8 8 8 9 8 9 8 8 8 9 9 8 9 9 9 10 9 10 10 11 10 10 11 12 12 14 14 15 15 15 15 15 16 13 10 10 10 11
9 9 11 9 9 8 8 8 7 8 8 8 8 8 8 8 9 9 9 9 8 9 10 10 11 11 10 11 11 12 12 11 14 15 15 15 15 15 15 15 16 15 11 11
9 9 10 10 10 9 9 9 9 9 9 9 9 9 8 9 9 9 9 9 9 10 10 10 10 11 10 11 11 12 12 13 14 15 15 14 15 15 14 15 15 15 15 13
10 10 10 10 10 11 10 10 10 10 10 10 10 10 9 8 9 9 10 10 10 11 11 10 10 10 10 11 12 12 13 12 13 15 15 15 15 15 15 15 16 16 16 16
12 12 12 12 11 11 11 10 10 10 10 11 10 10 9 9 10 10 10 10 9 10 10 10 10 10 10 11 12 13 13 12 12 15 16 15 15 15 14 15 15 16 15 14
10 9 10 10 10 11 12 11 10 10 11 10 10 10 10 10 10 10 10 11 11 11 10 10 10 10 11 12 12 13 13 13 14 14 15 15 15 14 14 15 15 15 15 14
10 10 10 10 10 10 12 11 11 11 10 10 10 10 10 9 9 10 11 11 11 11 11 11 9 10 12 12 12 13 13 14 14 15 15 13 14 14 15 15 15 15 15 15
9 9 11 11 10 11 11 11 11 11 10 10 10 11 11 10 10 10 10 10 10 10 10 10 10 12 12 11 11 13 14 14 15 15 14 15 15 15 14 14 15 15 15 15
10 10 10 10 11 11 11 11 11 11 11 11 11 11 11 10 9 10 11 11 11 10 10 9 12 12 12 11 12 13 14 14 15 15 14 15 14 14 14 15 14 14 15 15
12 12 12 12 12 12 11 11 11 11 11 11 10 10 11 11 10 10 10 10 10 9 10 12 12 11 11 10 13 13 14 15 15 15 15 15 15 15 15 15 15 14 15 16
12 12 12 12 12 12 11 11 11 10 10 10 10 10 11 10 10 11 12 11 10 9 11 12 11 9 9 13 13 14 15 15 15 15 15 15 14 14 15 15 15 15 16 15
12 12 12 12 12 12 12 12 11 10 10 10 10 10 11 11 12 10 9 8 8 9 10 10 9 8 11 14 14 15 15 15 15 14 14 12 14 14 14 14 15 15 15 14
12 12 12 12 12 12 12 12 11 11 11 11 11 11 10 10 10 10 9 8 7 9 10 7 7 9 13 14 14 14 14 14 14 14 14 14 14 14 14 15 15 15 14 13
12 12 12 12 12 11 11 11 12 12 11 12 12 10 10 10 10 10 9 8 9 8 9 8 9 12 13 13 13 13 14 14 13 14 14 14 13 13 14 14 15 14 14 13
12 11 12 12 11 11 11 11 12 12 11 11 11 10 10 11 10 10 9 10 9 9 8 9 10 11 13 12 13 14 14 14 13 14 14 12 13 13 14 14 14 14 14 13

GFSNGP_con_lsi_129.txt.gz
Lid_Strength_Index
15 14 14 15 16 16 18 18 18 18 17 15 11 11 10 10 10 9 8 8 7 7 7 9 10 11 11 11 11 11 12 12 12 12 13 12 13 12 11 11 12 11 11 11
17 15 15 15 15 15 16 17 17 17 17 13 12 11 11 11 10 10 10 9 10 9 10 9 11 12 12 12 12 11 12 12 11 11 12 12 12 12 11 11 11 11 11 11
18 16 16 17 15 15 15 15 15 18 15 13 13 10 10 10 10 10 10 10 10 11 11 11 12 12 11 11 11 11 12 12 11 12 12 12 12 12 12 13 12 12 12 11
18 17 20 15 13 13 13 13 14 15 15 12 12 10 9 9 9 9 9 10 10 11 11 11 11 11 11 11 11 11 11 11 11 11 12 12 12 12 13 13 12 12 12 12
18 19 16 14 13 13 14 13 12 13 14 12 10 10 12 9 8 8 9 9 10 11 11 12 12 11 11 12 11 11 12 12 12 12 12 12 12 13 13 13 13 13 12 12
18 19 18 14 13 11 12 16 12 11 13 12 11 13 11 9 8 9 9 10 11 11 12 12 12 12 12 12 12 13 12 12 12 12 12 13 13 14 14 14 13 12 13 14
17 18 15 12 11 11 16 14 12 11 11 11 11 10 11 8 8 8 9 10 11 11 11 11 12 12 12 13 13 12 13 13 13 13 13 13 14 15 15 14 14 15 14 14
18 18 17 11 12 13 11 12 11 11 11 10 11 11 10 8 8 8 10 10 10 11 11 12 12 11 13 13 12 13 13 13 13 13 12 14 15 16 16 15 15 15 15 15
14 14 11 10 12 10 10 10 11 11 10 9 10 11 10 9 9 8 9 10 10 10 11 12 11 11 12 12 13 13 13 13 14 14 14 15 16 17 16 16 16 15 15 15
14 12 12 10 11 11 10 10 10 10 10 9 10 10 10 10 9 9 9 9 10 10 12 12 12 11 11 13 12 12 13 14 14 15 15 16 16 16 16 16 16 15 15 15
14 13 11 10 10 10 10 9 10 10 9 8 9 10 10 10 10 9 9 9 10 10 11 11 12 11 12 12 12 13 13 13 14 14 15 16 16 16 16 16 15 15 15 14
14 10 10 10 8 9 9 9 9 9 9 9 8 9 9 10 10 9 9 9 10 10 10 11 11 12 12 12 11 12 14 14 14 15 16 16 16 16 12 13 11 11 11 13
10 9 8 10 9 9 8 9 8 9 8 9 9 9 9 10 10 9 9 9 9 10 10 10 11 11 11 11 11 12 13 13 14 14 15 16 16 16 16 13 11 11 10 10
10 9 10 10 9 9 9 8 6 8 9 8 8 9 9 10 9 9 10 9 9 9 10 10 11 11 11 11 12 12 13 11 13 15 15 15 16 16 15 15 15 15 11 11
10 9 9 9 9 9 9 9 9 9 9 9 9 9 9 10 10 9 9 9 9 10 10 10 11 11 11 11 12 12 13 13 14 15 15 14 15 16 15 15 15 15 15 12
10 10 11 10 9 9 9 9 9 8 10 9 9 10 9 9 9 10 10 10 10 10 10 10 10 10 10 11 11 12 12 11 13 15 15 15 15 15 15 15 15 16 15 15
11 13 12 12 10 10 9 8 8 8 8 10 9 9 10 10 10 10 11 10 9 9 9 10 10 10 10 11 11 12 12 12 12 14 14 14 15 15 15 15 15 16 16 15
9 9 9 8 10 10 10 9 8 9 9 9 10 11 10 11 10 10 10 11 11 11 10 10 10 11 11 11 12 12 12 12 14 14 14 14 14 14 15 15 15 16 16 15
10 9 10 9 9 9 9 10 10 9 10 10 11 11 10 10 10 10 11 11 11 12 12 12 10 11 12 11 11 12 13 13 14 14 14 13 13 14 15 15 15 15 16 15
10 11 11 11 10 11 11 11 11 11 11 12 11 11 11 11 11 11 11 11 11 11 12 11 10 12 12 11 11 12 13 13 14 14 13 14 14 14 14 14 15 15 15 15
9 10 12 12 13 12 12 12 12 13 12 11 11 11 11 11 11 12 13 13 12 11 11 9 12 13 12 10 12 13 13 14 13 14 13 14 14 14 14 14 15 15 15 14
9 12 13 13 13 13 13 13 12 12 12 12 12 12 12 12 12 12 12 11 12 9 10 11 12 11 11 10 12 13 13 13 13 13 13 14 14 14 14 15 15 14 14 15
11 11 12 12 12 12 13 13 13 12 12 12 12 12 12 13 12 12 12 12 11 10 11 12 10 8 8 12 12 12 13 13 13 13 13 13 13 14 15 15 15 14 15 16
13 13 12 12 13 14 14 14 13 12 12 12 12 12 12 13 13 12 11 10 9 10 12 11 9 7 9 12 12 12 12 12 13 13 13 13 14 15 15 15 15 15 14 14
13 14 14 13 13 13 13 13 13 13 13 13 13 13 12 12 12 12 11 10 9 11 11 8 8 9 11 11 11 12 12 13 13 14 14 14 14 14 15 15 15 14 15 14
14 13 13 13 13 13 13 12 13 13 13 14 14 13 12 12 11 11 11 11 11 10 10 9 11 12 11 11 11 13 14 13 13 14 14 14 14 14 14 14 14 14 14 14
13 12 13 13 13 12 12 12 12 13 13 12 13 13 13 12 12 12 11 12 11 11 10 11 13 12 12 12 13 13 13 13 13 13 14 14 14 14 14 14 14 14 14 14

GFSNGP_con_lsi_132.txt.gz
Lid_Strength_Index
16 15 15 16 16 17 18 18 19 18 17 15 13 11 11 10 10 8 7 7 7 7 8 9 10 10 10 11 11 11 11 11 12 11 10 10 10 10 10 10 10 10 11 11
17 15 15 15 15 16 16 17 17 18 17 14 14 12 11 10 10 10 8 7 7 7 7 9 10 10 11 12 12 12 12 13 13 13 13 13 12 11 11 12 11 11 11 11
19 16 16 18 16 15 16 16 15 18 15 15 13 12 11 11 10 9 9 9 9 8 8 9 11 12 12 12 12 12 12 12 12 12 12 12 12 12 12 12 12 12 12 11
19 18 20 15 14 14 14 14 14 15 14 14 13 11 10 10 10 10 9 9 10 10 11 11 12 12 12 12 12 12 12 12 12 12 13 12 12 13 13 13 13 12 12 12
19 19 17 15 14 14 15 14 12 13 14 14 12 11 12 9 9 9 9 9 10 10 11 12 12 13 12 13 13 13 13 13 13 13 13 13 14 14 14 14 13 13 13 13
19 19 19 14 13 12 12 15 12 11 13 12 11 15 13 10 8 9 9 10 11 12 12 12 13 13 13 13 13 13 13 13 13 13 13 14 14 15 15 15 14 13 14 13
18 19 17 13 12 12 16 14 12 11 12 11 12 12 12 9 8 8 9 10 11 12 12 12 12 12 13 14 13 13 13 13 13 14 14 14 15 15 16 16 16 16 16 15
18 19 18 12 12 13 11 13 11 12 11 10 11 11 11 9 9 9 10 11 11 11 12 12 12 12 13 13 13 13 13 13 14 14 13 14 15 16 16 17 17 17 17 16
15 16 11 10 11 11 11 11 11 11 10 10 10 10 10 9 9 9 10 10 10 11 12 12 12 12 13 13 13 13 14 14 14 14 14 15 16 17 17 17 17 17 16 16
14 13 12 11 11 11 11 11 11 10 10 10 10 10 10 9 9 9 10 10 11 11 12 12 12 12 12 13 12 13 14 14 15 15 15 16 16 16 16 17 17 16 16 16
16 14 12 11 10 9 10 10 10 10 9 9 9 10 10 9 9 9 9 10 10 11 11 11 12 12 12 12 12 13 14 14 14 14 15 17 16 16 16 16 15 16 16 16
15 12 11 10 8 9 10 10 9 9 10 9 9 9 9 10 9 9 9 10 10 10 11 11 11 12 12 12 12 13 14 14 14 15 16 16 16 16 12 12 11 11 11 14
11 10 9 10 10 9 8 9 9 9 9 9 9 9 9 10 9 8 9 9 10 10 10 11 11 12 12 12 12 12 13 13 13 14 16 17 17 16 16 13 10 10 10 11
11 9 10 10 9 9 9 8 7 9 9 8 9 9 9 9 9 9 10 9 9 10 11 11 11 11 11 12 12 12 12 11 13 15 15 16 16 16 16 15 15 15 11 11
10 10 10 9 9 9 10 9 9 9 9 9 9 9 9 10 9 9 9 9 10 10 10 11 11 11 11 11 11 12 12 12 14 15 15 15 16 16 15 15 15 15 14 11
10 10 11 10 9 9 10 10 9 9 9 9 9 9 9 8 9 10 10 10 11 11 10 11 11 10 11 11 11 12 12 11 13 15 15 15 16 16 15 15 15 15 15 15
12 13 12 12 10 10 9 9 8 8 9 9 8 9 9 10 10 11 11 10 9 10 10 10 10 11 11 11 11 12 12 12 12 14 14 15 15 15 15 15 15 15 15 14
11 10 9 9 9 10 10 9 9 9 9 8 9 9 10 10 10 10 11 11 11 11 11 10 11 11 11 11 11 12 12 12 13 14 14 15 15 15 15 15 15 15 15 14
11 11 10 10 9 9 9 9 9 8 9 9 9 9 9 9 10 11 11 11 11 12 11 11 9 10 11 11 11 12 12 13 14 14 14 13 14 15 15 14 14 15 15 15
8 9 11 11 10 10 10 9 9 9 9 9 9 10 11 11 11 11 11 11 10 10 12 11 11 12 12 10 9 12 12 13 13 14 14 14 14 14 14 13 14 14 14 14
8 8 9 12 12 11 10 10 11 10 10 10 10 11 11 12 12 12 12 12 12 11 12 10 12 13 11 10 11 12 12 13 13 13 13 14 14 14 14 13 13 14 14 14
10 10 10 11 11 12 12 11 11 11 11 12 11 12 13 13 13 12 12 11 13 10 11 12 12 11 10 9 12 12 12 13 13 13 13 13 13 13 13 13 14 14 14 15
10 10 11 12 11 11 12 13 12 12 12 13 13 13 12 12 12 13 13 13 12 10 12 13 11 9 8 13 13 12 12 12 12 12 12 12 12 12 13 13 14 14 15 15
13 12 12 12 13 13 14 14 13 13 13 13 13 12 12 13 14 13 12 11 10 11 13 11 9 8 11 13 13 13 12 12 11 12 12 11 12 13 14 14 15 14 14 14
14 14 14 14 13 12 13 14 14 14 14 14 13 13 13 12 13 14 12 11 10 12 11 8 8 10 13 13 13 12 11 12 12 12 12 13 13 14 14 14 14 14 14 14
14 14 14 14 13 14 14 13 14 14 13 14 14 14 13 13 12 12 12 12 12 10 10 9 11 13 13 13 12 12 13 12 12 13 13 14 13 14 14 14 14 13 14 14
13 12 14 14 14 13 13 13 13 13 13 13 14 14 13 13 12 13 12 12 11 11 10 12 13 13 14 13 13 13 12 12 13 13 13 13 14 14 14 14 13 13 12 13

GFSNGP_con_lsi_135.txt.gz
Lid_Strength_Index
15 14 14 15 15 15 15 15 16 16 15 13 12 10 9 8 7 7 7 6 6 7 7 8 8 8 8 8 8 7 7 8 8 8 8 8 8 8 8 9 9 9 10 10
15 14 14 14 15 15 14 16 15 16 15 12 12 10 10 9 8 7 7 7 6 6 7 8 9 9 9 8 8 7 8 8 8 8 8 9 9 10 10 10 10 9 9 9
16 15 15 16 14 15 15 15 13 16 12 13 12 11 10 9 9 8 6 6 6 6 7 8 9 9 8 8 8 8 8 9 8 8 9 9 9 9 9 9 8 8 8 8
17 16 18 14 12 12 12 13 13 13 13 12 11 10 9 8 8 8 7 6 6 6 7 8 9 10 10 10 9 9 10 10 9 9 9 9 9 9 9 9 9 8 8 8
17 18 15 14 14 13 13 13 12 12 12 12 10 10 10 8 7 7 6 6 6 5 6 9 9 10 10 11 11 11 11 11 11 10 11 11 11 11 11 10 10 10 9 9
18 17 18 14 12 11 11 14 11 11 11 12 10 12 11 9 7 7 7 6 7 7 8 9 10 10 11 11 11 11 11 11 11 11 11 11 11 11 11 11 11 11 11 10
17 17 15 13 11 11 14 12 11 11 11 10 11 10 9 8 8 7 7 7 7 8 9 9 11 11 11 11 11 11 11 11 11 11 11 11 12 12 12 11 12 12 12 11
17 18 17 12 12 12 10 10 11 11 10 9 9 10 9 8 8 8 9 9 8 9 9 10 10 10 11 12 10 11 11 11 11 11 11 12 12 12 12 12 13 13 13 13
14 15 11 11 10 9 10 10 10 10 9 8 9 10 8 8 8 8 9 9 9 9 10 10 10 10 11 10 11 11 11 11 11 11 12 12 12 13 13 13 13 13 13 13
13 12 12 11 10 10 9 9 9 9 9 8 9 9 8 8 8 8 8 9 9 9 10 11 10 10 9 10 11 11 12 12 12 12 12 12 13 13 13 13 13 13 13 13
14 13 12 11 10 9 9 9 9 9 8 8 8 9 8 8 7 7 8 8 9 9 10 10 10 10 10 10 11 11 12 12 12 12 12 13 13 13 13 12 12 13 13 13
12 11 10 10 8 8 9 9 9 9 9 8 8 8 8 8 7 7 8 8 9 9 9 10 10 10 10 10 10 11 12 12 12 12 13 13 14 14 12 12 11 11 11 12
11 9 9 10 9 8 8 9 9 9 8 8 8 8 8 8 8 7 7 8 8 8 8 9 10 10 10 10 10 11 11 12 12 12 13 14 14 14 14 11 10 10 10 10
10 9 10 10 9 9 8 8 7 9 8 8 8 8 8 8 7 8 8 7 7 8 9 9 10 10 10 10 10 11 11 10 11 12 12 13 14 13 13 12 12 12 10 10
10 10 9 8 9 10 9 9 9 9 9 9 8 8 8 8 8 8 7 7 8 8 9 9 9 10 10 10 11 11 11 10 11 12 12 13 13 14 13 13 12 12 11 10
10 10 10 9 9 10 9 9 9 9 9 9 9 8 8 7 7 8 8 8 9 9 9 9 9 9 10 10 10 11 11 10 11 12 12 13 13 13 13 13 13 12 12 11
11 13 12 11 10 10 9 8 8 8 8 9 8 8 8 9 9 9 9 8 8 8 8 9 9 10 10 10 10 11 11 10 11 12 12 13 13 13 13 13 13 12 12 12
8 9 9 9 9 9 9 9 9 9 9 8 8 8 9 9 8 9 9 9 9 10 9 8 9 10 10 10 10 10 11 11 12 13 13 13 13 13 13 13 13 13 13 12
10 10 10 10 9 9 9 9 9 8 9 9 9 8 8 8 8 9 9 10 10 10 9 9 9 9 10 10 10 11 11 11 12 12 12 12 13 13 13 13 13 13 13 13
9 10 10 10 10 10 9 9 9 9 9 9 9 9 8 8 9 9 9 10 9 9 9 9 9 10 10 10 9 11 10 11 12 12 12 12 13 13 13 13 13 13 13 13
8 9 11 11 11 11 10 9 9 9 9 9 8 8 8 8 9 10 10 10 10 10 10 9 10 11 11 9 10 11 11 11 12 12 11 12 12 12 12 13 12 12 13 12
8 9 10 11 11 11 11 10 10 9 9 9 9 9 10 10 11 11 11 10 11 9 9 11 11 11 10 9 11 11 11 11 12 11 11 11 12 12 12 12 12 12 12 12
10 10 9 9 10 10 10 11 11 10 10 10 10 10 10 10 10 11 12 11 10 10 11 11 11 9 8 11 11 12 12 12 12 11 11 11 11 11 11 12 12 12 12 12
12 11 10 10 10 12 13 13 11 11 11 11 11 11 12 12 13 12 11 10 10 11 12 11 9 7 11 12 12 12 12 12 11 10 10 10 11 11 11 12 12 12 12 12
13 13 12 13 13 12 11 13 13 13 13 13 13 12 12 12 11 12 11 10 10 11 11 8 7 9 12 12 13 12 12 11 11 11 11 10 11 11 11 11 12 12 12 12
13 13 13 13 12 12 12 13 13 13 13 14 14 13 13 12 11 11 11 11 11 10 9 8 10 12 13 13 12 12 11 11 10 10 10 11 11 12 12 12 12 11 11 11
13 13 14 14 14 13 13 13 13 13 13 13 14 13 12 12 12 12 11 11 10 10 9 11 12 13 13 13 12 11 10 10 10 11 11 11 11 11 11 12 11 11 11 11